Location: Hartman Creek State Park
(44.3257°N, 89.2134°W)
Time: 01:08:55
(UTC-05:00)

Cosmos 2263 Rocket - Visible Passes

Search period start: 29 March 2015 00:00
Search period end: 08 April 2015 00:00
Orbit: 824 x 849 km, 71.0° (Epoch: 28 March)

Date Brightness Start Highest point End Pass type
(mag) Time Alt. Az. Time Alt. Az. Time Alt. Az.
29 Mar 4.5 01:17:48 19° N 01:17:48 19° N 01:19:30 10° NNE visible
30 Mar 4.5 01:01:09 19° N 01:01:09 19° N 01:02:54 10° NNE visible
31 Mar 4.4 00:44:28 20° N 00:44:28 20° N 00:46:17 10° NNE visible
01 Apr 4.4 00:27:43 21° N 00:27:43 21° N 00:29:40 10° NNE visible
01 Apr 4.8 02:09:23 10° NW 02:09:45 10° NW 02:10:32 10° NNW visible
02 Apr 4.2 00:10:55 23° N 00:10:55 23° N 00:13:03 10° NNE visible
02 Apr 4.8 01:52:34 11° NW 01:53:00 11° NW 01:54:25 10° NNW visible
02 Apr 4.1 23:54:02 25° N 23:54:02 25° N 23:56:26 10° NNE visible
03 Apr 4.8 01:35:41 12° NW 01:36:15 12° NW 01:38:08 10° NNW visible
03 Apr 3.8 23:37:04 29° N 23:37:04 29° N 23:39:48 10° NNE visible
04 Apr 4.8 01:18:42 12° NW 01:19:30 12° NW 01:21:45 10° NNW visible
04 Apr 3.5 23:19:58 34° N 23:19:58 34° N 23:23:11 10° NNE visible
05 Apr 4.7 01:01:36 13° NW 01:02:46 13° NW 01:05:19 10° NNW visible
05 Apr 4.3 21:21:04 11° ENE 21:21:04 11° ENE 21:21:17 10° ENE visible
05 Apr 3.1 23:02:41 43° N 23:02:41 43° N 23:06:33 10° NNE visible
06 Apr 4.7 00:44:18 13° WNW 00:46:01 14° NW 00:48:51 10° N visible
06 Apr 4.1 21:03:32 13° ENE 21:03:32 13° ENE 21:04:26 10° ENE visible
06 Apr 2.5 22:45:07 62° N 22:45:07 62° N 22:49:54 10° NNE visible
07 Apr 4.7 00:26:41 12° WNW 00:29:17 15° NW 00:32:22 10° N visible
07 Apr 5.0 05:48:04 10° N 05:50:51 14° NE 05:53:49 10° ENE visible
07 Apr 3.8 20:45:30 15° E 20:45:30 15° E 20:47:33 10° ENE visible
07 Apr 2.2 22:27:03 72° WSW 22:27:34 80° WNW 22:33:16 10° NNE visible
